Orbital Elements at Epoch 2459000.5 (2020-May-31.0) TDB
Reference: JPL 12 (heliocentric ecliptic J2000)
Element | Value | Uncertainty (1-sigma) | Units |
e | .07432773615349939 | 6.5593e-08 | |
a | 2.178258462489039 | 1.7751e-08 | au |
q | 2.016353442215026 | 1.4924e-07 | au |
i | 4.704263946664471 | 8.1577e-06 | deg |
node | 11.75992070207303 | 7.0338e-05 | deg |
peri | 21.44444156613661 | 9.1897e-05 | deg |
M | 135.0367049141983 | 5.9796e-05 | deg |
tp | 2458560.034524761552 (2019-Mar-17.53452476) | 0.0001923 | TDB |
period | 1174.255334404037 3.21 | 1.4353e-05 3.93e-08 | d yr |
n | .3065772745096437 | 3.7474e-09 | deg/d |
Q | 2.340163482763051 | 1.907e-08 | au |
|
| | Orbit Determination Parameters
Additional Information
|